Clarksville, TN

5:05 PM CDT on April 23, 2017 (GMT -0500)
Outlaw

Weather History for KCKV - November, 2012

Change the Weather History Date:

Sunday, November 25, 2012

  Actual Average Record
Temperature  
Mean Temperature 41 °F 45 °F  
Max Temperature 58 °F 55 °F 76 °F (1958)
Min Temperature 24 °F 34 °F -2 °F (1950)
Degree Days  
Heating Degree Days 24    
Month to date heating degree days 442  
Since 1 July heating degree days 740  
Cooling Degree Days 0    
Month to date cooling degree days 0  
Year to date cooling degree days  
Moisture  
Dew Point 23 °F    
Average Humidity 52    
Maximum Humidity 88    
Minimum Humidity 24    
Precipitation  
Precipitation 0.00 in 0.19 in 1.79 in (2010)
Month to date precipitation 1.26 3.64  
Year to date precipitation 44.21  
Sea Level Pressure  
Sea Level Pressure 30.07 in    
Wind  
Wind Speed 6 mph (SSW)    
Max Wind Speed 15 mph    
Max Gust Speed 20 mph    
Visibility 10 miles    
Events      
T = Trace of Precipitation, MM = Missing Value Source: NWS Daily Summary

Daily Weather History Graph

Daily Weather History Graph

Search for Another Location

Airport or City:

Trip Planner

Search our weather history database for the weather conditions in past years. The results will help you decide how hot, cold, wet, or windy it might be!

Date:

Astronomy

Nov. 25, 2012 Rise Set
Actual Time 6:38 AM CST 4:35 PM CST
Civil Twilight 6:09 AM CST 5:03 PM CST
Nautical Twilight 5:38 AM CST 5:35 PM CST
Astronomical Twilight 5:07 AM CST 6:06 PM CST
Moon 2:49 PM CST (11/25) 3:54 AM CST (11/25)
Length of Visible Light 10h 53m
Length of Day
9h 57m
Waxing Gibbous, 93% of the Moon is Illuminated
Nov 25
Waxing Gibbous
Nov 28
Full
Dec 6
Last Quarter
Dec 13
New
Dec 19
First Quarter

Hourly Weather History & Observations

Time (CST) Temp. Windchill Dew Point Humidity Pressure Visibility Wind Dir Wind Speed Gust Speed Precip Events Conditions
12:52 AM 27.0 °F - 21.0 °F 78% 30.15 in 10.0 mi Calm Calm - N/A   Clear
1:52 AM 26.1 °F 21.9 °F 21.0 °F 81% 30.15 in 10.0 mi South 3.5 mph - N/A   Clear
2:52 AM 25.0 °F 20.7 °F 21.9 °F 88% 30.14 in 10.0 mi SSE 3.5 mph - N/A   Clear
3:52 AM 25.0 °F - 21.9 °F 88% 30.14 in 10.0 mi Calm Calm - N/A   Clear
4:52 AM 26.1 °F - 21.9 °F 84% 30.14 in 10.0 mi Calm Calm - N/A   Clear
5:52 AM 27.0 °F 23.0 °F 21.0 °F 78% 30.13 in 10.0 mi SSE 3.5 mph - N/A   Clear
6:52 AM 25.0 °F 20.7 °F 19.9 °F 81% 30.14 in 10.0 mi SSE 3.5 mph - N/A   Clear
7:52 AM 30.0 °F 25.2 °F 23.0 °F 75% 30.12 in 10.0 mi South 4.6 mph - N/A   Clear
8:52 AM 37.9 °F 31.5 °F 25.0 °F 60% 30.12 in 10.0 mi SSW 9.2 mph - N/A   Clear
9:52 AM 43.0 °F 37.7 °F 24.1 °F 47% 30.11 in 10.0 mi SSW 9.2 mph - N/A   Clear
10:52 AM 50.0 °F - 25.0 °F 38% 30.08 in 10.0 mi SW 9.2 mph - N/A   Clear
11:52 AM 53.1 °F - 23.0 °F 31% 30.04 in 10.0 mi SSW 10.4 mph - N/A   Clear
12:52 PM 57.0 °F - 21.9 °F 26% 30.01 in 10.0 mi SW 9.2 mph 17.3 mph N/A   Clear
1:52 PM 57.9 °F - 21.9 °F 25% 29.99 in 10.0 mi SW 11.5 mph - N/A   Clear
2:52 PM 57.9 °F - 24.1 °F 27% 29.99 in 10.0 mi SW 9.2 mph - N/A   Clear
3:52 PM 55.9 °F - 23.0 °F 28% 29.99 in 10.0 mi SSW 10.4 mph - N/A   Clear
4:52 PM 52.0 °F - 23.0 °F 32% 30.01 in 10.0 mi SSW 5.8 mph - N/A   Clear
5:52 PM 50.0 °F - 21.9 °F 33% 30.03 in 10.0 mi SSW 4.6 mph - N/A   Clear
6:52 PM 46.9 °F - 23.0 °F 39% 30.03 in 10.0 mi South 6.9 mph - N/A   Clear
7:52 PM 46.9 °F - 23.0 °F 39% 30.04 in 10.0 mi South 4.6 mph - N/A   Clear
8:52 PM 46.0 °F 43.9 °F 23.0 °F 40% 30.04 in 10.0 mi SSW 4.6 mph - N/A   Clear
9:52 PM 46.0 °F - 23.0 °F 40% 30.04 in 10.0 mi Calm Calm - N/A   Clear
10:52 PM 43.0 °F - 23.0 °F 45% 30.06 in 10.0 mi Calm Calm - N/A   Clear
11:52 PM 42.1 °F - 24.1 °F 49% 30.08 in 10.0 mi Calm Calm - N/A   Overcast